Weather in Marsh Harbour

Bahamas     26°30′49″N   77°04′59″W
temp.,
°C
wind,
m/s
gust,
m/s
humid.,
%
clouds,
%
prec.,
mm/h
press.,
hPa
HPBL,
m
27 october, wed
wed2723:00+27wsw35750 0.0 1011530
02:00+27sw46820 0.1 1010442
05:00+27w68795 0.2 1009778
08:00+27wnw787622 0.3 1011819
11:00+27w78692 0.0 1012997
14:00+28w78644 0.0 10101026
17:00+27wnw78591 0.0 10101084
20:00+26wnw555998 0.0 1012727
28 october, thu
thu2823:00+26wnw3458100 0.0 1012603
02:00+26w3358100 0.0 1012434
05:00+25sw22605 0.0 1011304
08:00+25ssw1262100 0.0 1012204
11:00+27s3567100 0.0 1013683
14:00+29ssw6769100 0.1 1011731
17:00+29sw7871100 1.3 1010642
20:00+28sw697993 2.4 1011838
29 october, fri
fri2923:00+27ssw71081100 1.2 1010652
02:00+27sw71182100 2.5 1009747
05:00+27sw91280100 1.3 1008908
08:00+27sw101381100 1.6 1009983
11:00+28sw101377100 1.2 10091110
14:00+28wsw91277100 4.0 10081072
17:00+27wsw91074100 1.2 10071167
20:00+27wsw811735 1.3 10091098
30 october, sat
sat3023:00+27wsw911706 0.0 10091295
02:00+27wsw9126526 0.0 10081410
05:00+27wsw91361100 0.0 10081618
08:00+27wsw9125981 0.0 10091669
11:00+27wsw9125991 0.0 10101818
14:00+27wsw9116476 0.3 10091637
17:00+27wsw8106384 0.2 10081434
20:00+27wsw6106466 0.4 10101420
31 october, sun
sun3123:00+26w7106897 0.4 10111174
02:00+26w786899 0.5 1011911
05:00+26w6958100 0.3 10111375
08:00+26w795634 0.3 10131363
11:00+25wnw676537 0.0 10151035
14:00+26wnw666110 0.1 10141104
17:00+25nw55600 0.0 1015991
20:00+25nw44590 0.0 1017988